Location: Unspecified
(0.0000°N, 0.0000°E)
Time: 18:24:45
(UTC+00:00)

Vanguard 2 - Pass Details

Date: 17 April 2026
Orbit: 553 x 2895 km, 32.9° (Epoch: 17 May)

Event Time Altitude Azimuth Distance (km) Brightness Sun altitude
Rises 22:42:43 0° 258° (WSW) 5,712 12.2 -68.1°
Reaches altitude 10° 22:47:32 10° 244° (WSW) 5,050 11.7 -69.1°
Enters shadow 22:48:37 12° 240° (WSW) 4,934 11.6 -69.4°
